Regional Weather Roundup
Issued by NWS

Home | Current Version | Previous Version | Graphics & Text | Print | Product List | Glossary On
Versions: 1 2 3 4 5 6 7 8 9 10 11 12 13 14 15 16 17 18 19 20 21 22 23 24 25 26 27 28 29 30 31 32 33 34 35 36 37 38 39 40 41 42 43 44 45 46 47 48 49 50
000
ASUS43 KLOT 272108
RWRIL

ILLINOIS REGIONAL WEATHER ROUNDUP
NATIONAL WEATHER SERVICE CHICAGO/ROMEOVILLE IL
400 PM CDT FRI MAY 27 2016

NOTE: "FAIR" INDICATES FEW OR NO CLOUDS BELOW 12,000 FEET WITH NO
SIGNIFICANT WEATHER AND/OR OBSTRUCTIONS TO VISIBILITY.

* THESE STATIONS ARE NOT UNDER NWS QUALITY CONTROL. THEY ALSO MAY NOT
  REPORT WEATHER SUCH AS PRECIPITATION OR FOG.

ILZ001-002-007-009-015-016-024-272200-
NORTHWEST ILLINOIS

CITY           SKY/WX    TMP DP  RH WIND       PRES   REMARKS
MOLINE         CLOUDY    76  67  73 S14       29.78F
STERLING*      CLOUDY    73  69  87 SE7       29.81F
SAVANNA*       CLOUDY    76  68  78 S10G16    29.79S
$$

ILZ003-004-008-010-011-017-018-272200-
NORTH CENTRAL ILLINOIS

CITY           SKY/WX    TMP DP  RH WIND       PRES   REMARKS
ROCKFORD       LGT RAIN  72  66  81 S16G23    29.85R
FREEPORT*      LGT RAIN  68  65  92 S15       29.83R
ROCHELLE*      CLOUDY    72  68  87 S13       29.83F
DE KALB*       CLOUDY    72  69  92 S12       29.85F
$$

ILZ005-006-012>014-019>023-272200-
NORTHEAST ILLINOIS

CITY           SKY/WX    TMP DP  RH WIND       PRES   REMARKS
CHICAGO-OHARE  PTSUNNY   75  70  84 S12G23    29.83F
CHICAGO-MIDWAY CLOUDY    77  67  71 S13       29.84S
AURORA         CLOUDY    75  68  78 S10       29.84S
LANSING*       CLOUDY    74  69  82 SE10G16   29.86R
JOLIET*        CLOUDY    81  69  66 S16       29.84F HX  83
WAUKEGAN       LGT RAIN  72  63  73 SE10      29.82F
DUPAGE AIRPORT LGT RAIN  73  66  78 S14       29.83F
KANKAKEE*      CLOUDY    82  65  56 S15G22    29.86F HX  83
WHEELING       RAIN      72  68  87 S10       29.86R FOG
MORRIS*        CLOUDY    80  64  56 S16G28    29.82S HX  82
ROMEOVILLE*    CLOUDY    80  65  62 S16       29.84F HX  81
NORTHERLY ISL    N/A     72  66  81 S12         N/A
NORTHERLY ISL    N/A     72  66  81 S12         N/A
$$

LMZ740>746-272200-
SOUTHERN LAKE MICHIGAN

STATION/POSITION SKY/WX   TEMP    WIND        PRES    VSBY  WAVE
                          AIR SEA DIR/SP/G                  HT/PER
                          (F)     (DEG/KT/KT) (MB)    (MI)  (FT/S)
SOUTHERN BUOY              57 51  120/ 10/ 10 1011.1F         1
WILMETTE HARBOR            64 59  180/ 14/ 21   N/A           1/ 2
HARRISON CRIB              71     110/  7/  8   N/A
BURNHAM HARBOR             70     150/  6/ 17   N/A
CALUMET HARBOR             83     160/  9/ 14 1009.9F
BURNS HARBOR               84     180/ 13/ 20 1011.2F
MICHIGAN CITY              83     140/ 13/ 19   N/A
MICHIGAN CITY 6N           72 60  180/  8/ 10   N/A           1/ 2
ST. JOSEPH                 74 64  150/  8/ 12   N/A           1
$$

ILZ025>027-034>036-040-047-049-050-058-095>099-272200-
WEST-CENTRAL ILLINOIS

CITY           SKY/WX    TMP DP  RH WIND       PRES   REMARKS
QUINCY         PTSUNNY   78  68  71 S8        29.78F HX  80
GALESBURG*     CLOUDY    74  68  79 S8        29.81S
MACOMB*        CLOUDY    77  69  76 S13       29.82F
JACKSONVILLE*  CLOUDY    75  68  78 S15       29.82S
PITTSFIELD*    CLOUDY    77  70  79 S9        29.81S
$$

ILZ028>032-037-038-041>044-048-051>054-059>061-272200-
CENTRAL ILLINOIS

CITY           SKY/WX    TMP DP  RH WIND       PRES   REMARKS
PONTIAC        CLOUDY    82  67  60 S28       29.85F HX  84
BLOOMINGTON    CLOUDY    77  68  73 S26       29.86F
DECATUR        CLOUDY    78  68  71 S17G23    29.86F HX  80
PEORIA         CLOUDY    77  66  68 S15       29.81F
LACON*         CLOUDY    78  67  67 S9        29.82S HX  80
LINCOLN*       CLOUDY    78  69  74 S16G22    29.84S HX  80
SPRINGFIELD    CLOUDY    78  68  71 S16       29.84F HX  80
TAYLORVILLE    CLOUDY    74  68  80 S17       29.85F
$$

ILZ033-039-045-046-055>057-062-063-272200-
EAST-CENTRAL ILLINOIS

CITY           SKY/WX    TMP DP  RH WIND       PRES   REMARKS
CHAMPAIGN      CLOUDY    82  67  60 S24G30    29.87F HX  84
RANTOUL*       CLOUDY    81  68  65 SW14      29.87F HX  83
MATTOON        CLOUDY    79  67  66 S10G24    29.88F HX  81
PARIS*         CLOUDY    81  67  63 S12       29.90S HX  83
$$

ILZ079-100>102-272200-
SOUTHWEST ILLINOIS

CITY           SKY/WX    TMP DP  RH WIND       PRES   REMARKS
ALTON          CLOUDY    73  68  83 S14       29.84S
BELLEVILLE     CLOUDY    75  74  99 VRB5      29.83S
CAHOKIA*       CLOUDY    77  68  73 S12G20    29.82F
SPARTA*        RAIN      73  70  89 S14       29.86S
$$

ILZ064>066-069>071-074>076-080>082-084>086-088>090-092>094-272200-
SOUTH-CENTRAL ILLINOIS

CITY           SKY/WX    TMP DP  RH WIND       PRES   REMARKS
CARBONDALE     CLOUDY    74  68  81 S7        29.86S
CAIRO*         MOSUNNY   71  68  88 SW6       29.89R
EFFINGHAM*     CLOUDY    78  71  76 SE12G21   29.89F HX  81
MARION         PTSUNNY   73  72  94 S7        29.88F
MT. VERNON     CLOUDY    79  68  69 S13       29.88S HX  81
CENTRALIA*     LGT RAIN  74  73  95 S7        29.85F
SALEM*         CLOUDY    79  69  70 S8        29.87R HX  82
METROPOLIS*    PTSUNNY   83  71  66 S13G20    29.89F HX  87
$$

ILZ067-068-072-073-078-083-087-091-272200-
SOUTHEAST ILLINOIS

CITY           SKY/WX    TMP DP  RH WIND       PRES   REMARKS
LAWRENCEVILLE  PTSUNNY   83  65  54 S20G29    29.90F HX  85
FLORA*         PTSUNNY   78  69  73 S13       29.89S HX  80
FAIRFIELD*     CLOUDY    77  69  75 SE5       29.88F
HARRISBURG*    LGT RAIN  75  70  86 S12G21    29.89S
ROBINSON*      CLOUDY    82  69  63 S15       29.90F HX  85
CARMI*         MOSUNNY   81  69  67 S15       29.89S HX  84
$$

ABBREVIATIONS USED IN REMARKS
   TC - TEMPERATURE IN CELSIUS
  WCI - WIND CHILL INDEX
   HX - HEAT INDEX
  VSB - VISIBILITY
$$





USA.gov is the U.S. government's official web portal to all federal, state and local government web resources and services.